Weather in Nikolsk

Russia / Penza Oblast     53°42′52″N   46°05′03″E
temp.,
°C
wind,
m/s
gust,
m/s
humid.,
%
clouds,
%
prec.,
mm/h
press.,
hPa
HPBL,
m
28 february, sun
sun2800:00−16nnw51194100 0.0 1009508
03:00−18nnw51196100 0.1 1010337
06:00−19nw489891 0.0 1011209
09:00−17nw489578 0.0 1012276
12:00−13nw579084 0.0 1013505
15:00−13nw578991 0.0 1014515
18:00−17nw359697 0.0 101599
21:00−18nnw339896 0.0 101858
1 march, mon
mon100:00−19nw239938 0.0 101926
03:00−20nw239953 0.0 102127
06:00−20nw2310019 0.0 102331
09:00−16nw249537 0.0 1024175
12:00−11nw348889 0.0 1024373
15:00−10w459194 0.0 1024354
18:00−15wsw349648 0.0 102357
21:00−14wsw479856 0.0 1022130
2 march, tue
tue200:00−12wsw51196100 0.0 1019272
03:00−9sw71394100 0.1 1015364
06:00−6sw71594100 0.6 1010555
09:00−3wsw81495100 2.0 1007665
12:00−1wsw81396100 1.9 1004757
15:000wnw58100100 3.4 1002532
18:00−2nw5119499 1.2 1002394
21:00−2nw7139697 1.8 1004682
3 march, wed
wed300:00−3nw61296100 1.1 1004680
03:00−5wnw61295100 1.6 1005441
06:00−6wnw5109699 0.3 1005354
09:00−4nw6109499 0.7 1006649
12:00−4nw61092100 0.3 1007717
15:00−5nw71093100 0.6 1009785
18:00−6nw71294100 0.6 1011686
21:00−7nnw61193100 0.8 1014489
4 march, thu
thu400:00−9nw41096100 0.1 1015300
03:00−10wnw4996100 0.2 1016254
06:00−12wnw4897100 0.1 1017193
09:00−10w4896100 0.1 1018278
12:00−5w5894100 0.0 1017453
15:00−3wsw6993100 0.1 1015600
18:00−3wsw71290100 0.0 1013621
21:00−3wsw71592100 0.1 1012627